<?xml version="1.0" encoding="UTF-8"?>
<gpx
version="1.1"
creator="Kashmir3D 9.350 - http://www.kashmir3d.com"
xmlns:xsi="http://www.w3.org/2001/XMLSchema-instance"
xmlns="http://www.topografix.com/GPX/1/1"
xmlns:kashmir3d="http://www.kashmir3d.com/namespace/kashmir3d"
xsi:schemaLocation="http://www.topografix.com/GPX/1/1 http://www.topografix.com/GPX/1/1/gpx.xsd
	http://www.kashmir3d.com/namespace/kashmir3d http://www.kashmir3d.com/namespace/kashmir3d.xsd">
<trk>
 <name>TAKAMADOYAMA.KML(高円山)</name>
 <number>1</number>
 <extensions>
 <kashmir3d:line_color>0000ff</kashmir3d:line_color>
 <kashmir3d:line_size>3</kashmir3d:line_size>
 <kashmir3d:line_style>1</kashmir3d:line_style>
 <kashmir3d:icon>901001</kashmir3d:icon>
 </extensions>
<trkseg>
<trkpt lat="34.669120" lon="135.852135">
 <ele>170.9</ele>
 <time>2020-03-24T13:45:04Z</time>
</trkpt>
<trkpt lat="34.669137" lon="135.852317">
 <ele>173</ele>
 <time>2020-03-24T13:45:04Z</time>
</trkpt>
<trkpt lat="34.669205" lon="135.852467">
 <ele>172.6</ele>
 <time>2020-03-24T13:45:04Z</time>
</trkpt>
<trkpt lat="34.669257" lon="135.852575">
 <ele>171.7</ele>
 <time>2020-03-24T13:45:04Z</time>
</trkpt>
<trkpt lat="34.669283" lon="135.852660">
 <ele>172.5</ele>
 <time>2020-03-24T13:45:04Z</time>
</trkpt>
<trkpt lat="34.669257" lon="135.852736">
 <ele>173.8</ele>
 <time>2020-03-24T13:45:04Z</time>
</trkpt>
<trkpt lat="34.669265" lon="135.852811">
 <ele>175</ele>
 <time>2020-03-24T13:45:04Z</time>
</trkpt>
<trkpt lat="34.669265" lon="135.852886">
 <ele>177.2</ele>
 <time>2020-03-24T13:45:05Z</time>
</trkpt>
<trkpt lat="34.669265" lon="135.852982">
 <ele>179.5</ele>
 <time>2020-03-24T13:45:05Z</time>
</trkpt>
<trkpt lat="34.669300" lon="135.853111">
 <ele>181</ele>
 <time>2020-03-24T13:45:05Z</time>
</trkpt>
<trkpt lat="34.669334" lon="135.853208">
 <ele>180.3</ele>
 <time>2020-03-24T13:45:05Z</time>
</trkpt>
<trkpt lat="34.669334" lon="135.853272">
 <ele>179.8</ele>
 <time>2020-03-24T13:45:05Z</time>
</trkpt>
<trkpt lat="34.669386" lon="135.853390">
 <ele>178.1</ele>
 <time>2020-03-24T13:45:05Z</time>
</trkpt>
<trkpt lat="34.669429" lon="135.853530">
 <ele>179.3</ele>
 <time>2020-03-24T13:45:05Z</time>
</trkpt>
<trkpt lat="34.669463" lon="135.853626">
 <ele>180.8</ele>
 <time>2020-03-24T13:45:06Z</time>
</trkpt>
<trkpt lat="34.669497" lon="135.853744">
 <ele>184.1</ele>
 <time>2020-03-24T13:45:06Z</time>
</trkpt>
<trkpt lat="34.669549" lon="135.853830">
 <ele>183.5</ele>
 <time>2020-03-24T13:45:06Z</time>
</trkpt>
<trkpt lat="34.669609" lon="135.853862">
 <ele>183.3</ele>
 <time>2020-03-24T13:45:06Z</time>
</trkpt>
<trkpt lat="34.669677" lon="135.853862">
 <ele>186.6</ele>
 <time>2020-03-24T13:45:06Z</time>
</trkpt>
<trkpt lat="34.669703" lon="135.853916">
 <ele>186.1</ele>
 <time>2020-03-24T13:45:06Z</time>
</trkpt>
<trkpt lat="34.669746" lon="135.854012">
 <ele>187.6</ele>
 <time>2020-03-24T13:45:06Z</time>
</trkpt>
<trkpt lat="34.669806" lon="135.854098">
 <ele>191.8</ele>
 <time>2020-03-24T13:45:07Z</time>
</trkpt>
<trkpt lat="34.669832" lon="135.854227">
 <ele>192.1</ele>
 <time>2020-03-24T13:45:07Z</time>
</trkpt>
<trkpt lat="34.669832" lon="135.854345">
 <ele>191.3</ele>
 <time>2020-03-24T13:45:07Z</time>
</trkpt>
<trkpt lat="34.669858" lon="135.854420">
 <ele>193.4</ele>
 <time>2020-03-24T13:45:07Z</time>
</trkpt>
<trkpt lat="34.669901" lon="135.854517">
 <ele>194.7</ele>
 <time>2020-03-24T13:45:07Z</time>
</trkpt>
<trkpt lat="34.669901" lon="135.854613">
 <ele>195</ele>
 <time>2020-03-24T13:45:07Z</time>
</trkpt>
<trkpt lat="34.669909" lon="135.854699">
 <ele>195.7</ele>
 <time>2020-03-24T13:45:07Z</time>
</trkpt>
<trkpt lat="34.670047" lon="135.854817">
 <ele>199.9</ele>
 <time>2020-03-24T13:45:07Z</time>
</trkpt>
<trkpt lat="34.670132" lon="135.854892">
 <ele>202.6</ele>
 <time>2020-03-24T13:45:08Z</time>
</trkpt>
<trkpt lat="34.670261" lon="135.854989">
 <ele>202.4</ele>
 <time>2020-03-24T13:45:08Z</time>
</trkpt>
<trkpt lat="34.670390" lon="135.855053">
 <ele>206.4</ele>
 <time>2020-03-24T13:45:08Z</time>
</trkpt>
<trkpt lat="34.670459" lon="135.855150">
 <ele>210.6</ele>
 <time>2020-03-24T13:45:08Z</time>
</trkpt>
<trkpt lat="34.670510" lon="135.855235">
 <ele>212.5</ele>
 <time>2020-03-24T13:45:08Z</time>
</trkpt>
<trkpt lat="34.670579" lon="135.855407">
 <ele>216.2</ele>
 <time>2020-03-24T13:45:08Z</time>
</trkpt>
<trkpt lat="34.670630" lon="135.855536">
 <ele>218.3</ele>
 <time>2020-03-24T13:45:08Z</time>
</trkpt>
<trkpt lat="34.670682" lon="135.855611">
 <ele>219</ele>
 <time>2020-03-24T13:45:09Z</time>
</trkpt>
<trkpt lat="34.670793" lon="135.855654">
 <ele>224.8</ele>
 <time>2020-03-24T13:45:09Z</time>
</trkpt>
<trkpt lat="34.670922" lon="135.855750">
 <ele>231.7</ele>
 <time>2020-03-24T13:45:09Z</time>
</trkpt>
<trkpt lat="34.671025" lon="135.855815">
 <ele>237.3</ele>
 <time>2020-03-24T13:45:09Z</time>
</trkpt>
<trkpt lat="34.671102" lon="135.855868">
 <ele>239.8</ele>
 <time>2020-03-24T13:45:09Z</time>
</trkpt>
<trkpt lat="34.671145" lon="135.855890">
 <ele>241.5</ele>
 <time>2020-03-24T13:45:09Z</time>
</trkpt>
<trkpt lat="34.671308" lon="135.856051">
 <ele>247.4</ele>
 <time>2020-03-24T13:45:09Z</time>
</trkpt>
<trkpt lat="34.671377" lon="135.856126">
 <ele>249.6</ele>
 <time>2020-03-24T13:45:09Z</time>
</trkpt>
<trkpt lat="34.671257" lon="135.856147">
 <ele>244.5</ele>
 <time>2020-03-24T13:45:10Z</time>
</trkpt>
<trkpt lat="34.671059" lon="135.856373">
 <ele>246.8</ele>
 <time>2020-03-24T13:45:10Z</time>
</trkpt>
<trkpt lat="34.670974" lon="135.856544">
 <ele>261.4</ele>
 <time>2020-03-24T13:45:10Z</time>
</trkpt>
<trkpt lat="34.670974" lon="135.856716">
 <ele>270.2</ele>
 <time>2020-03-24T13:45:10Z</time>
</trkpt>
<trkpt lat="34.670956" lon="135.856920">
 <ele>272.8</ele>
 <time>2020-03-24T13:45:10Z</time>
</trkpt>
<trkpt lat="34.670905" lon="135.857070">
 <ele>273.8</ele>
 <time>2020-03-24T13:45:10Z</time>
</trkpt>
<trkpt lat="34.670871" lon="135.857295">
 <ele>278.4</ele>
 <time>2020-03-24T13:45:10Z</time>
</trkpt>
<trkpt lat="34.670810" lon="135.857446">
 <ele>280.4</ele>
 <time>2020-03-24T13:45:11Z</time>
</trkpt>
<trkpt lat="34.670759" lon="135.857617">
 <ele>285.2</ele>
 <time>2020-03-24T13:45:11Z</time>
</trkpt>
<trkpt lat="34.670716" lon="135.857789">
 <ele>292.5</ele>
 <time>2020-03-24T13:45:11Z</time>
</trkpt>
<trkpt lat="34.670647" lon="135.857918">
 <ele>296.5</ele>
 <time>2020-03-24T13:45:11Z</time>
</trkpt>
<trkpt lat="34.670596" lon="135.858143">
 <ele>306.3</ele>
 <time>2020-03-24T13:45:11Z</time>
</trkpt>
<trkpt lat="34.670536" lon="135.858497">
 <ele>319.2</ele>
 <time>2020-03-24T13:45:11Z</time>
</trkpt>
<trkpt lat="34.670501" lon="135.858658">
 <ele>325.4</ele>
 <time>2020-03-24T13:45:11Z</time>
</trkpt>
<trkpt lat="34.670476" lon="135.858851">
 <ele>331.7</ele>
 <time>2020-03-24T13:45:11Z</time>
</trkpt>
<trkpt lat="34.670459" lon="135.858991">
 <ele>332.2</ele>
 <time>2020-03-24T13:45:12Z</time>
</trkpt>
<trkpt lat="34.670381" lon="135.859162">
 <ele>338.4</ele>
 <time>2020-03-24T13:45:12Z</time>
</trkpt>
<trkpt lat="34.670295" lon="135.859259">
 <ele>343.5</ele>
 <time>2020-03-24T13:45:12Z</time>
</trkpt>
<trkpt lat="34.670218" lon="135.859484">
 <ele>351.4</ele>
 <time>2020-03-24T13:45:12Z</time>
</trkpt>
<trkpt lat="34.670115" lon="135.859677">
 <ele>357.1</ele>
 <time>2020-03-24T13:45:12Z</time>
</trkpt>
<trkpt lat="34.670081" lon="135.859795">
 <ele>359.1</ele>
 <time>2020-03-24T13:45:12Z</time>
</trkpt>
<trkpt lat="34.669875" lon="135.859924">
 <ele>359.3</ele>
 <time>2020-03-24T13:45:12Z</time>
</trkpt>
<trkpt lat="34.669738" lon="135.859999">
 <ele>363.4</ele>
 <time>2020-03-24T13:45:12Z</time>
</trkpt>
<trkpt lat="34.669669" lon="135.860063">
 <ele>366.2</ele>
 <time>2020-03-24T13:45:13Z</time>
</trkpt>
<trkpt lat="34.669574" lon="135.860181">
 <ele>370.9</ele>
 <time>2020-03-24T13:45:13Z</time>
</trkpt>
<trkpt lat="34.669454" lon="135.860289">
 <ele>376.5</ele>
 <time>2020-03-24T13:45:13Z</time>
</trkpt>
<trkpt lat="34.669403" lon="135.860375">
 <ele>378.5</ele>
 <time>2020-03-24T13:45:13Z</time>
</trkpt>
<trkpt lat="34.669291" lon="135.860557">
 <ele>381.3</ele>
 <time>2020-03-24T13:45:13Z</time>
</trkpt>
<trkpt lat="34.669231" lon="135.860761">
 <ele>388.1</ele>
 <time>2020-03-24T13:45:13Z</time>
</trkpt>
<trkpt lat="34.669137" lon="135.860922">
 <ele>392.2</ele>
 <time>2020-03-24T13:45:13Z</time>
</trkpt>
<trkpt lat="34.669085" lon="135.861061">
 <ele>398.2</ele>
 <time>2020-03-24T13:45:14Z</time>
</trkpt>
<trkpt lat="34.669059" lon="135.861201">
 <ele>401</ele>
 <time>2020-03-24T13:45:14Z</time>
</trkpt>
<trkpt lat="34.669085" lon="135.861351">
 <ele>400.4</ele>
 <time>2020-03-24T13:45:14Z</time>
</trkpt>
<trkpt lat="34.669120" lon="135.861533">
 <ele>399.6</ele>
 <time>2020-03-24T13:45:14Z</time>
</trkpt>
<trkpt lat="34.669171" lon="135.861769">
 <ele>400.1</ele>
 <time>2020-03-24T13:45:14Z</time>
</trkpt>
<trkpt lat="34.669197" lon="135.861898">
 <ele>401.1</ele>
 <time>2020-03-24T13:45:14Z</time>
</trkpt>
<trkpt lat="34.669283" lon="135.862005">
 <ele>401.5</ele>
 <time>2020-03-24T13:45:14Z</time>
</trkpt>
<trkpt lat="34.669377" lon="135.862080">
 <ele>400.1</ele>
 <time>2020-03-24T13:45:15Z</time>
</trkpt>
<trkpt lat="34.669480" lon="135.862220">
 <ele>400</ele>
 <time>2020-03-24T13:45:15Z</time>
</trkpt>
<trkpt lat="34.669574" lon="135.862316">
 <ele>399.7</ele>
 <time>2020-03-24T13:45:15Z</time>
</trkpt>
<trkpt lat="34.669669" lon="135.862488">
 <ele>406.7</ele>
 <time>2020-03-24T13:45:15Z</time>
</trkpt>
<trkpt lat="34.669729" lon="135.862649">
 <ele>412.8</ele>
 <time>2020-03-24T13:45:15Z</time>
</trkpt>
<trkpt lat="34.669789" lon="135.862799">
 <ele>416.5</ele>
 <time>2020-03-24T13:45:15Z</time>
</trkpt>
<trkpt lat="34.669841" lon="135.862928">
 <ele>418.3</ele>
 <time>2020-03-24T13:45:15Z</time>
</trkpt>
<trkpt lat="34.669866" lon="135.863035">
 <ele>418.6</ele>
 <time>2020-03-24T13:45:16Z</time>
</trkpt>
<trkpt lat="34.669892" lon="135.863164">
 <ele>418</ele>
 <time>2020-03-24T13:45:16Z</time>
</trkpt>
<trkpt lat="34.669883" lon="135.863185">
 <ele>418.7</ele>
 <time>2020-03-24T13:45:16Z</time>
</trkpt>
<trkpt lat="34.669866" lon="135.863250">
 <ele>418.7</ele>
 <time>2020-03-24T13:45:16Z</time>
</trkpt>
<trkpt lat="34.669883" lon="135.863325">
 <ele>418.7</ele>
 <time>2020-03-24T13:45:16Z</time>
</trkpt>
<trkpt lat="34.669875" lon="135.863389">
 <ele>418.9</ele>
 <time>2020-03-24T13:45:16Z</time>
</trkpt>
<trkpt lat="34.669815" lon="135.863518">
 <ele>421.9</ele>
 <time>2020-03-24T13:45:16Z</time>
</trkpt>
<trkpt lat="34.669738" lon="135.863679">
 <ele>427.5</ele>
 <time>2020-03-24T13:45:16Z</time>
</trkpt>
<trkpt lat="34.669643" lon="135.863883">
 <ele>431.1</ele>
 <time>2020-03-24T13:45:17Z</time>
</trkpt>
<trkpt lat="34.669738" lon="135.863679">
 <ele>427.5</ele>
 <time>2020-03-24T13:45:17Z</time>
</trkpt>
<trkpt lat="34.669815" lon="135.863518">
 <ele>421.9</ele>
 <time>2020-03-24T13:45:17Z</time>
</trkpt>
<trkpt lat="34.669875" lon="135.863389">
 <ele>418.9</ele>
 <time>2020-03-24T13:45:17Z</time>
</trkpt>
<trkpt lat="34.669883" lon="135.863325">
 <ele>418.7</ele>
 <time>2020-03-24T13:45:17Z</time>
</trkpt>
<trkpt lat="34.669866" lon="135.863250">
 <ele>418.7</ele>
 <time>2020-03-24T13:45:17Z</time>
</trkpt>
<trkpt lat="34.669883" lon="135.863185">
 <ele>418.7</ele>
 <time>2020-03-24T13:45:17Z</time>
</trkpt>
<trkpt lat="34.669892" lon="135.863164">
 <ele>418</ele>
 <time>2020-03-24T13:45:17Z</time>
</trkpt>
<trkpt lat="34.669866" lon="135.863035">
 <ele>418.6</ele>
 <time>2020-03-24T13:45:18Z</time>
</trkpt>
<trkpt lat="34.669841" lon="135.862928">
 <ele>418.3</ele>
 <time>2020-03-24T13:45:18Z</time>
</trkpt>
<trkpt lat="34.669789" lon="135.862799">
 <ele>416.5</ele>
 <time>2020-03-24T13:45:18Z</time>
</trkpt>
<trkpt lat="34.669729" lon="135.862649">
 <ele>412.8</ele>
 <time>2020-03-24T13:45:18Z</time>
</trkpt>
<trkpt lat="34.669669" lon="135.862488">
 <ele>406.7</ele>
 <time>2020-03-24T13:45:18Z</time>
</trkpt>
<trkpt lat="34.669574" lon="135.862316">
 <ele>399.7</ele>
 <time>2020-03-24T13:45:18Z</time>
</trkpt>
<trkpt lat="34.669480" lon="135.862220">
 <ele>400</ele>
 <time>2020-03-24T13:45:18Z</time>
</trkpt>
<trkpt lat="34.669377" lon="135.862080">
 <ele>400.1</ele>
 <time>2020-03-24T13:45:19Z</time>
</trkpt>
<trkpt lat="34.669283" lon="135.862005">
 <ele>401.5</ele>
 <time>2020-03-24T13:45:19Z</time>
</trkpt>
<trkpt lat="34.669197" lon="135.861898">
 <ele>401.1</ele>
 <time>2020-03-24T13:45:19Z</time>
</trkpt>
<trkpt lat="34.669171" lon="135.861769">
 <ele>400.1</ele>
 <time>2020-03-24T13:45:19Z</time>
</trkpt>
<trkpt lat="34.669120" lon="135.861533">
 <ele>399.6</ele>
 <time>2020-03-24T13:45:19Z</time>
</trkpt>
<trkpt lat="34.669085" lon="135.861351">
 <ele>400.4</ele>
 <time>2020-03-24T13:45:19Z</time>
</trkpt>
<trkpt lat="34.669059" lon="135.861201">
 <ele>401</ele>
 <time>2020-03-24T13:45:19Z</time>
</trkpt>
<trkpt lat="34.669085" lon="135.861061">
 <ele>398.2</ele>
 <time>2020-03-24T13:45:19Z</time>
</trkpt>
<trkpt lat="34.669137" lon="135.860922">
 <ele>392.2</ele>
 <time>2020-03-24T13:45:20Z</time>
</trkpt>
<trkpt lat="34.669231" lon="135.860761">
 <ele>388.1</ele>
 <time>2020-03-24T13:45:20Z</time>
</trkpt>
<trkpt lat="34.669291" lon="135.860557">
 <ele>381.3</ele>
 <time>2020-03-24T13:45:20Z</time>
</trkpt>
<trkpt lat="34.669403" lon="135.860375">
 <ele>378.5</ele>
 <time>2020-03-24T13:45:20Z</time>
</trkpt>
<trkpt lat="34.669454" lon="135.860289">
 <ele>376.5</ele>
 <time>2020-03-24T13:45:20Z</time>
</trkpt>
<trkpt lat="34.669574" lon="135.860181">
 <ele>370.9</ele>
 <time>2020-03-24T13:45:20Z</time>
</trkpt>
<trkpt lat="34.669669" lon="135.860063">
 <ele>366.2</ele>
 <time>2020-03-24T13:45:20Z</time>
</trkpt>
<trkpt lat="34.669738" lon="135.859999">
 <ele>363.4</ele>
 <time>2020-03-24T13:45:20Z</time>
</trkpt>
<trkpt lat="34.669875" lon="135.859924">
 <ele>359.3</ele>
 <time>2020-03-24T13:45:21Z</time>
</trkpt>
<trkpt lat="34.670081" lon="135.859795">
 <ele>359.1</ele>
 <time>2020-03-24T13:45:21Z</time>
</trkpt>
<trkpt lat="34.670115" lon="135.859677">
 <ele>357.1</ele>
 <time>2020-03-24T13:45:21Z</time>
</trkpt>
<trkpt lat="34.670218" lon="135.859484">
 <ele>351.4</ele>
 <time>2020-03-24T13:45:21Z</time>
</trkpt>
<trkpt lat="34.670295" lon="135.859259">
 <ele>343.5</ele>
 <time>2020-03-24T13:45:21Z</time>
</trkpt>
<trkpt lat="34.670381" lon="135.859162">
 <ele>338.4</ele>
 <time>2020-03-24T13:45:21Z</time>
</trkpt>
<trkpt lat="34.670459" lon="135.858991">
 <ele>332.2</ele>
 <time>2020-03-24T13:45:21Z</time>
</trkpt>
<trkpt lat="34.670476" lon="135.858851">
 <ele>331.7</ele>
 <time>2020-03-24T13:45:21Z</time>
</trkpt>
<trkpt lat="34.670501" lon="135.858658">
 <ele>325.4</ele>
 <time>2020-03-24T13:45:22Z</time>
</trkpt>
<trkpt lat="34.670536" lon="135.858497">
 <ele>319.2</ele>
 <time>2020-03-24T13:45:22Z</time>
</trkpt>
<trkpt lat="34.670596" lon="135.858143">
 <ele>306.3</ele>
 <time>2020-03-24T13:45:22Z</time>
</trkpt>
<trkpt lat="34.670647" lon="135.857918">
 <ele>296.5</ele>
 <time>2020-03-24T13:45:22Z</time>
</trkpt>
<trkpt lat="34.670716" lon="135.857789">
 <ele>292.5</ele>
 <time>2020-03-24T13:45:22Z</time>
</trkpt>
<trkpt lat="34.670759" lon="135.857617">
 <ele>285.2</ele>
 <time>2020-03-24T13:45:22Z</time>
</trkpt>
<trkpt lat="34.670810" lon="135.857446">
 <ele>280.4</ele>
 <time>2020-03-24T13:45:22Z</time>
</trkpt>
<trkpt lat="34.670871" lon="135.857295">
 <ele>278.4</ele>
 <time>2020-03-24T13:45:23Z</time>
</trkpt>
<trkpt lat="34.670905" lon="135.857070">
 <ele>273.8</ele>
 <time>2020-03-24T13:45:23Z</time>
</trkpt>
<trkpt lat="34.670956" lon="135.856920">
 <ele>272.8</ele>
 <time>2020-03-24T13:45:23Z</time>
</trkpt>
<trkpt lat="34.670974" lon="135.856716">
 <ele>270.2</ele>
 <time>2020-03-24T13:45:23Z</time>
</trkpt>
<trkpt lat="34.670974" lon="135.856544">
 <ele>261.4</ele>
 <time>2020-03-24T13:45:23Z</time>
</trkpt>
<trkpt lat="34.671059" lon="135.856373">
 <ele>246.8</ele>
 <time>2020-03-24T13:45:23Z</time>
</trkpt>
<trkpt lat="34.671257" lon="135.856147">
 <ele>244.5</ele>
 <time>2020-03-24T13:45:23Z</time>
</trkpt>
<trkpt lat="34.671377" lon="135.856126">
 <ele>249.6</ele>
 <time>2020-03-24T13:45:23Z</time>
</trkpt>
<trkpt lat="34.671308" lon="135.856051">
 <ele>247.4</ele>
 <time>2020-03-24T13:45:24Z</time>
</trkpt>
<trkpt lat="34.671145" lon="135.855890">
 <ele>241.5</ele>
 <time>2020-03-24T13:45:24Z</time>
</trkpt>
<trkpt lat="34.671102" lon="135.855868">
 <ele>239.8</ele>
 <time>2020-03-24T13:45:24Z</time>
</trkpt>
<trkpt lat="34.671025" lon="135.855815">
 <ele>237.3</ele>
 <time>2020-03-24T13:45:24Z</time>
</trkpt>
<trkpt lat="34.670922" lon="135.855750">
 <ele>231.7</ele>
 <time>2020-03-24T13:45:24Z</time>
</trkpt>
<trkpt lat="34.670793" lon="135.855654">
 <ele>224.8</ele>
 <time>2020-03-24T13:45:24Z</time>
</trkpt>
<trkpt lat="34.670682" lon="135.855611">
 <ele>219</ele>
 <time>2020-03-24T13:45:24Z</time>
</trkpt>
<trkpt lat="34.670630" lon="135.855536">
 <ele>218.3</ele>
 <time>2020-03-24T13:45:25Z</time>
</trkpt>
<trkpt lat="34.670579" lon="135.855407">
 <ele>216.2</ele>
 <time>2020-03-24T13:45:25Z</time>
</trkpt>
<trkpt lat="34.670510" lon="135.855235">
 <ele>212.5</ele>
 <time>2020-03-24T13:45:25Z</time>
</trkpt>
<trkpt lat="34.670459" lon="135.855150">
 <ele>210.6</ele>
 <time>2020-03-24T13:45:25Z</time>
</trkpt>
<trkpt lat="34.670390" lon="135.855053">
 <ele>206.4</ele>
 <time>2020-03-24T13:45:25Z</time>
</trkpt>
<trkpt lat="34.670261" lon="135.854989">
 <ele>202.4</ele>
 <time>2020-03-24T13:45:25Z</time>
</trkpt>
<trkpt lat="34.670132" lon="135.854892">
 <ele>202.6</ele>
 <time>2020-03-24T13:45:25Z</time>
</trkpt>
<trkpt lat="34.670047" lon="135.854817">
 <ele>199.9</ele>
 <time>2020-03-24T13:45:25Z</time>
</trkpt>
<trkpt lat="34.669909" lon="135.854699">
 <ele>195.7</ele>
 <time>2020-03-24T13:45:26Z</time>
</trkpt>
<trkpt lat="34.669901" lon="135.854613">
 <ele>195</ele>
 <time>2020-03-24T13:45:26Z</time>
</trkpt>
<trkpt lat="34.669901" lon="135.854517">
 <ele>194.7</ele>
 <time>2020-03-24T13:45:26Z</time>
</trkpt>
<trkpt lat="34.669858" lon="135.854420">
 <ele>193.4</ele>
 <time>2020-03-24T13:45:26Z</time>
</trkpt>
<trkpt lat="34.669832" lon="135.854345">
 <ele>191.3</ele>
 <time>2020-03-24T13:45:26Z</time>
</trkpt>
<trkpt lat="34.669832" lon="135.854227">
 <ele>192.1</ele>
 <time>2020-03-24T13:45:26Z</time>
</trkpt>
<trkpt lat="34.669806" lon="135.854098">
 <ele>191.8</ele>
 <time>2020-03-24T13:45:26Z</time>
</trkpt>
<trkpt lat="34.669746" lon="135.854012">
 <ele>187.6</ele>
 <time>2020-03-24T13:45:27Z</time>
</trkpt>
<trkpt lat="34.669703" lon="135.853916">
 <ele>186.1</ele>
 <time>2020-03-24T13:45:27Z</time>
</trkpt>
<trkpt lat="34.669677" lon="135.853862">
 <ele>186.6</ele>
 <time>2020-03-24T13:45:27Z</time>
</trkpt>
<trkpt lat="34.669609" lon="135.853862">
 <ele>183.3</ele>
 <time>2020-03-24T13:45:27Z</time>
</trkpt>
<trkpt lat="34.669549" lon="135.853830">
 <ele>183.5</ele>
 <time>2020-03-24T13:45:27Z</time>
</trkpt>
<trkpt lat="34.669497" lon="135.853744">
 <ele>184.1</ele>
 <time>2020-03-24T13:45:27Z</time>
</trkpt>
<trkpt lat="34.669463" lon="135.853626">
 <ele>180.8</ele>
 <time>2020-03-24T13:45:27Z</time>
</trkpt>
<trkpt lat="34.669429" lon="135.853530">
 <ele>179.3</ele>
 <time>2020-03-24T13:45:27Z</time>
</trkpt>
<trkpt lat="34.669386" lon="135.853390">
 <ele>178.1</ele>
 <time>2020-03-24T13:45:28Z</time>
</trkpt>
<trkpt lat="34.669334" lon="135.853272">
 <ele>179.8</ele>
 <time>2020-03-24T13:45:28Z</time>
</trkpt>
<trkpt lat="34.669334" lon="135.853208">
 <ele>180.3</ele>
 <time>2020-03-24T13:45:28Z</time>
</trkpt>
<trkpt lat="34.669300" lon="135.853111">
 <ele>181</ele>
 <time>2020-03-24T13:45:28Z</time>
</trkpt>
<trkpt lat="34.669265" lon="135.852982">
 <ele>179.5</ele>
 <time>2020-03-24T13:45:28Z</time>
</trkpt>
<trkpt lat="34.669265" lon="135.852886">
 <ele>177.2</ele>
 <time>2020-03-24T13:45:28Z</time>
</trkpt>
<trkpt lat="34.669265" lon="135.852811">
 <ele>175</ele>
 <time>2020-03-24T13:45:28Z</time>
</trkpt>
<trkpt lat="34.669257" lon="135.852736">
 <ele>173.8</ele>
 <time>2020-03-24T13:45:29Z</time>
</trkpt>
<trkpt lat="34.669283" lon="135.852660">
 <ele>172.5</ele>
 <time>2020-03-24T13:45:29Z</time>
</trkpt>
<trkpt lat="34.669257" lon="135.852575">
 <ele>171.7</ele>
 <time>2020-03-24T13:45:29Z</time>
</trkpt>
<trkpt lat="34.669205" lon="135.852467">
 <ele>172.6</ele>
 <time>2020-03-24T13:45:29Z</time>
</trkpt>
<trkpt lat="34.669137" lon="135.852317">
 <ele>173</ele>
 <time>2020-03-24T13:45:29Z</time>
</trkpt>
<trkpt lat="34.669120" lon="135.852135">
 <ele>170.9</ele>
 <time>2020-03-24T13:45:29Z</time>
</trkpt>
</trkseg>
</trk>
</gpx>

